Regional Weather Roundup
Issued by NWS

Home | Current Version | Previous Version | Text Only | Print | Product List | Glossary Off
Versions: 1 2 3 4 5 6 7 8 9 10 11 12 13 14 15 16 17 18 19 20 21 22 23 24 25 26 27 28 29 30 31 32 33 34 35 36 37 38 39 40 41 42 43 44 45 46 47 48 49 50

000
ASUS43 KBIS 030410
RWRND

NORTH DAKOTA REGIONAL WEATHER ROUNDUP
NATIONAL WEATHER SERVICE BISMARCK ND
1100 PM CDT TUE SEP 02 2014

NOTE: "FAIR" INDICATES FEW OR NO CLOUDS BELOW 12,000 FEET WITH NO
SIGNIFICANT WEATHER AND/OR OBSTRUCTIONS TO VISIBILITY.


NDZ001>003-009>011-017-030500-
NORTHWEST NORTH DAKOTA

CITY           SKY/WX    TMP DP  RH WIND       PRES   REMARKS
WILLISTON      PTCLDY    54  47  77 CALM      29.74S
MINOT          PTCLDY    56  48  74 S3        29.75S
MINOT AFB      PTCLDY    52  51  95 S6        29.75R
$$

NDZ018>021-031>035-040>046-030500-
SOUTHWEST NORTH DAKOTA

CITY           SKY/WX    TMP DP  RH WIND       PRES   REMARKS
BISMARCK       CLEAR     58  54  86 CALM      29.77F
DICKINSON      PTCLDY    55  45  68 CALM      29.76F
GARRISON         N/A     58  49  72 NE6       29.76S
HETTINGER ARPT CLEAR     52  44  74 CALM      29.80S
$$

NDZ004>008-012>016-024-026-027-054-030500-
NORTHEAST NORTH DAKOTA

CITY           SKY/WX    TMP DP  RH WIND       PRES   REMARKS
GRAND FORKS    PTCLDY    62  53  72 W7        29.72R
GRND FRKS AFB  PTCLDY    61  54  78 W6        29.73R
DEVILS LAKE    PTCLDY    57  48  72 CALM      29.74R
$$

NDZ022-023-025-028>030-036>039-047>053-030500-
SOUTHEAST NORTH DAKOTA

CITY           SKY/WX    TMP DP  RH WIND       PRES   REMARKS
FARGO          MOCLDY    67  56  67 S8        29.75R
JAMESTOWN      PTCLDY    59  53  80 CALM      29.76S
$$




USA.gov is the U.S. government's official web portal to all federal, state and local government web resources and services.